Flag for U.S.A. Weather past 2 weeks in Tempe, Arizona, U.S.A.

Now
57 °F

Passing clouds.


Feels Like: 56 °F
Forecast: 57 / 73 °F
Wind: 6 mph from West

Location: Phoenix Sky Harbor International Airport

Current Time: Jan 27, 2015 at 5:54:27 AM

Latest Report: Jan 27, 2015 at 4:51 AM


Visibility: 10 mi

Pressure: 30.16 "Hg

Humidity: 78%

Dew point: 50 °F

Location of TempeLocation

Historic Weather in Tempe — Graph

°F

Tempe temperature yesterday

Maximum temperature yesterday: 70 °F (at 12:51 PM)
Minimum temperature yesterday: 54 °F (at 1:51 AM)
Average temperature yesterday: 61 °F

Past Weeks' High & Low Weather Summary

 TemperatureHumidityPressure
High76 °F (Jan 25, 2:51 PM)96% (Jan 12, 8:51 AM)30.31 "Hg (Jan 12, 8:51 AM)
Low45 °F (Jan 23, 4:51 AM)8% (Jan 24, 2:51 PM)29.79 "Hg (Jan 21, 5:51 AM)
Average60 °F43%30.08 "Hg
* Reported Jan 12 3:51 AM — Jan 27 3:51 AM, Tempe, Weather by CustomWeather, © 2014

Note: Actual official high and low records may vary slightly from our data, if they occured in-between our weather recording intervals... More about our weather records

Advertising

Tempe weather history for previous 24 hours

 ConditionsComfort  
Time TempWeatherWind HumidityBarometerVisibility
3:51 AM
Jan 27
56 °FPartly cloudy.3 mph81%30.15 "Hg10 mi
2:51 AM57 °FPartly cloudy.5 mph78%30.14 "Hg10 mi
1:51 AM58 °FMostly cloudy.5 mph72%30.14 "Hg10 mi
12:51 AM58 °FPartly cloudy.5 mph72%30.14 "Hg10 mi
11:51 PM
Jan 26
57 °FOvercast.No wind74%30.14 "Hg10 mi
10:51 PM59 °FLight rain. Mostly cloudy.6 mph67%30.14 "Hg10 mi
9:51 PM60 °FMostly cloudy.7 mph60%30.13 "Hg10 mi
8:51 PM61 °FMostly cloudy.3 mph56%30.11 "Hg10 mi
7:51 PM63 °FLight rain. Mostly cloudy.No wind37%30.09 "Hg10 mi
6:51 PM64 °FOvercast.3 mph32%30.06 "Hg10 mi
5:51 PM67 °FPartly sunny.5 mph24%30.05 "Hg10 mi
4:51 PM67 °FCloudy.7 mph25%30.04 "Hg10 mi
3:51 PM69 °FMostly cloudy.5 mph22%30.03 "Hg10 mi
2:51 PM69 °FCloudy.5 mph21%30.05 "Hg10 mi
1:51 PM70 °FCloudy.3 mph18%30.06 "Hg10 mi
12:51 PM70 °FBroken clouds.No wind18%30.10 "Hg10 mi
11:51 AM68 °FPartly sunny.No wind21%30.12 "Hg10 mi
10:51 AM66 °FPartly sunny.No wind26%30.14 "Hg10 mi
9:51 AM61 °FPartly sunny.6 mph32%30.11 "Hg10 mi
8:51 AM58 °FBroken clouds.7 mph36%30.09 "Hg10 mi
7:51 AM54 °FBroken clouds.No wind45%30.08 "Hg10 mi
6:51 AM57 °FPassing clouds.No wind36%30.06 "Hg10 mi
5:51 AM57 °FPassing clouds.No wind34%30.04 "Hg10 mi
Weather by CustomWeather, © 2014

See weather overviewHow to use our weather pages